GEFSMW_500_meanwind_258.txt.gz
Wind_Speed
17 18 17 18 19 19 18 18 18 18 18 17 18 18 18 18 18 18 17 18 17 17 17 17 18 18 18 18 18 19 19 19 19 19 19 20 20 20 21 21 21 22 22
17 18 19 19 19 19 19 18 18 17 17 17 18 18 17 17 17 18 18 18 18 18 17 17 18 18 18 18 18 18 18 19 19 19 19 19 19 19 20 21 21 22 22
18 19 20 20 20 19 18 18 17 17 17 18 18 17 17 17 17 17 17 16 17 17 17 18 18 18 18 19 19 19 19 18 18 19 20 20 19 19 20 20 21 22 22
18 19 19 19 19 18 17 17 17 17 17 17 17 17 16 17 17 17 16 16 17 17 18 18 19 19 18 18 18 18 18 19 19 19 20 20 20 20 20 20 21 22 22
19 19 18 19 19 18 17 17 16 16 16 16 16 16 16 17 17 18 17 17 17 17 17 18 18 18 18 18 19 19 19 19 19 19 19 20 20 21 21 21 21 22 23
18 17 17 18 17 17 16 16 15 16 15 15 16 16 16 16 17 18 17 18 18 18 18 19 18 18 19 19 19 18 19 19 19 19 20 20 20 21 21 22 22 22 23
17 17 18 18 16 15 15 15 15 15 15 15 15 15 16 17 17 17 18 19 19 19 19 19 19 19 19 19 19 18 19 19 20 20 20 20 21 21 22 22 22 23 23
16 17 17 17 16 15 15 15 15 15 15 15 15 16 17 17 17 18 19 19 20 19 20 20 19 19 20 19 19 19 19 20 21 21 21 21 21 22 22 22 22 23 23
17 18 17 16 15 15 14 15 15 15 14 14 15 16 17 17 18 19 19 20 20 19 20 20 19 20 20 20 19 20 21 21 21 21 21 21 22 21 21 22 22 22 22
18 17 16 15 15 15 15 15 16 16 15 15 15 16 17 17 18 19 19 20 19 20 20 19 19 20 21 20 20 20 21 21 21 21 20 20 20 20 20 20 20 20 21
17 16 16 16 16 16 15 16 16 16 16 16 16 17 17 17 18 19 19 19 19 20 19 19 20 20 20 20 20 20 20 20 20 20 19 19 19 19 19 19 19 19 20
18 17 16 16 16 15 16 17 16 17 17 17 17 18 17 17 17 18 19 19 19 19 19 20 20 20 20 20 20 19 19 19 19 18 18 18 18 19 19 18 18 18 19
18 17 17 17 17 17 17 17 17 17 17 17 17 18 18 18 18 18 19 19 19 19 19 20 20 19 19 19 20 19 19 18 18 18 18 17 18 18 18 17 17 18 18
19 18 17 18 18 18 17 17 17 18 18 18 19 19 19 18 19 19 19 19 20 20 20 19 19 19 19 19 19 18 18 17 17 17 17 17 17 17 17 17 17 17 17
21 19 18 18 18 18 18 18 18 19 19 19 19 18 19 19 19 19 20 20 21 20 20 19 19 19 19 18 18 18 17 17 16 16 16 16 16 17 17 17 17 17 17
22 21 20 20 20 19 19 20 20 20 20 20 20 19 19 19 19 19 20 21 20 20 19 19 18 18 18 17 17 17 17 15 15 16 16 16 17 16 16 16 16 16 17
22 22 22 22 21 21 20 21 20 20 20 20 20 19 20 19 19 19 20 20 20 19 19 19 18 18 17 16 16 16 15 14 14 14 15 15 15 14 15 15 16 16 17
24 23 23 23 23 23 22 21 21 20 20 21 20 20 20 20 19 19 20 20 20 20 20 19 18 18 17 16 16 15 13 13 13 13 14 13 13 13 14 15 16 16 16
24 24 24 24 23 23 22 22 21 21 21 22 21 21 21 20 20 20 20 20 20 20 19 19 18 18 17 16 15 15 13 12 13 13 13 13 12 12 13 13 14 14 15
24 24 24 23 23 22 22 22 22 22 22 22 21 21 21 22 21 21 21 20 20 19 19 19 18 17 16 16 15 14 14 13 13 13 13 13 13 13 13 13 13 13 13
25 25 25 24 24 23 23 23 22 22 22 22 22 21 21 21 21 21 21 21 20 20 19 19 18 17 16 16 15 14 13 13 13 13 13 13 13 12 12 12 12 12 12
26 25 25 25 24 23 23 23 23 23 23 22 21 21 21 21 21 21 21 22 21 21 21 20 19 18 17 16 15 14 13 13 13 13 12 12 12 12 12 12 12 11 11
26 25 25 25 24 23 23 24 24 24 23 23 22 22 21 22 22 22 22 22 21 21 22 21 20 19 17 17 16 15 15 14 14 14 13 13 12 12 12 12 12 11 11
26 25 25 24 24 23 24 24 25 25 25 24 23 23 23 22 23 23 23 22 23 22 21 19 19 18 18 17 17 17 16 15 15 14 14 14 13 12 12 12 12 11 11
25 25 25 25 25 25 25 25 25 26 26 25 24 24 23 23 23 23 23 23 22 21 21 19 19 19 19 18 17 16 16 16 16 16 15 15 14 14 13 13 12 12 12
25 25 25 25 25 24 24 25 25 25 25 25 25 24 23 23 23 22 22 22 22 21 20 20 19 19 19 19 18 17 16 16 16 16 15 15 15 14 14 14 13 12 12

GEFSMW_500_meanwind_264.txt.gz
Wind_Speed
16 15 14 15 15 14 14 14 15 15 14 13 13 12 13 13 14 14 13 13 14 13 13 12 13 13 14 14 15 16 16 16 17 17 18 18 18 19 20 20 19 20 21
15 15 15 15 14 14 14 14 15 14 14 13 12 12 13 13 14 14 13 12 13 13 12 13 13 13 13 14 15 15 15 16 17 17 17 18 18 19 19 20 20 20 21
14 14 14 14 14 14 14 14 15 14 14 14 14 14 14 14 14 14 14 14 14 14 13 13 13 13 14 15 15 16 16 16 16 16 17 17 17 17 18 19 20 20 21
12 13 13 13 13 14 14 14 15 14 13 13 13 14 14 14 14 14 15 14 14 15 14 14 14 15 16 16 16 16 16 16 17 16 16 17 17 17 18 19 20 20 20
11 11 12 12 13 14 14 14 14 13 13 12 13 13 14 14 14 14 15 15 15 15 15 15 15 16 16 16 16 16 16 16 16 16 16 16 17 18 19 19 20 20 20
12 12 12 12 13 13 13 13 12 13 13 13 13 13 13 13 14 14 15 16 16 16 15 16 16 17 17 17 17 16 16 16 16 16 15 15 16 17 18 19 20 20 20
13 13 12 13 13 12 12 12 12 13 13 13 13 13 13 14 14 15 15 16 16 16 17 17 17 18 18 18 17 17 16 16 16 15 15 16 16 17 18 19 20 19 20
13 13 13 13 13 12 12 12 12 13 13 13 13 14 14 14 14 14 14 15 15 16 16 17 17 18 18 18 17 17 17 16 16 16 16 16 17 17 18 18 18 19 20
14 14 15 13 12 12 11 12 13 13 13 13 14 14 14 14 14 14 14 15 15 16 16 17 17 18 18 18 17 17 17 17 16 16 16 17 17 17 17 18 18 19 20
16 15 15 15 14 13 13 13 13 13 13 14 14 14 14 14 15 15 15 15 16 16 16 16 16 17 18 18 17 16 17 17 18 18 18 18 18 18 18 19 19 19 20
17 17 17 17 15 15 15 15 14 13 14 15 14 14 14 15 15 16 15 16 15 16 16 16 16 17 18 18 18 17 18 18 18 18 18 18 18 19 19 19 19 19 20
18 18 18 18 17 17 16 15 15 14 15 15 15 16 16 16 16 15 15 16 15 16 16 16 16 17 18 18 18 18 18 17 17 17 17 17 18 18 19 18 18 18 18
18 18 19 19 18 17 16 15 15 15 16 16 16 16 16 16 16 15 16 16 16 17 17 17 17 17 17 18 18 18 17 16 16 15 15 15 16 17 17 17 17 17 17
19 19 19 18 18 18 18 17 16 16 16 16 16 15 16 16 16 16 17 17 17 17 18 18 18 17 17 17 17 16 15 13 13 13 13 14 15 16 16 16 16 16 17
19 19 19 18 19 20 19 19 16 16 16 16 16 16 17 16 16 17 18 18 18 19 19 19 18 17 17 17 16 14 13 13 12 13 13 12 13 14 15 15 15 15 15
19 19 18 19 19 20 20 19 18 17 17 17 18 18 18 17 17 18 18 18 19 19 19 18 18 18 17 16 15 14 13 13 12 12 12 12 12 12 13 14 15 15 15
20 19 19 19 19 19 20 19 19 19 19 20 19 19 18 18 19 19 19 19 19 19 19 19 18 18 17 16 15 14 13 13 12 12 11 12 12 12 12 13 14 15 15
20 20 19 19 19 19 20 19 20 20 20 19 19 19 19 19 19 19 19 20 20 19 19 19 19 18 17 15 15 14 13 13 12 12 13 12 12 12 13 13 13 14 15
22 21 19 20 21 21 21 21 21 20 20 20 20 20 20 19 19 19 20 20 20 20 19 19 19 18 16 16 14 13 13 13 13 13 13 12 12 12 12 12 13 13 13
21 21 20 21 21 22 21 21 21 21 21 21 20 20 20 20 20 20 20 20 20 20 19 19 18 17 16 16 15 14 13 13 13 13 13 13 13 13 13 13 13 13 13
22 21 22 22 22 21 21 21 22 22 22 21 21 20 21 21 20 20 19 20 19 19 19 18 18 17 16 15 15 14 13 14 14 14 13 13 13 13 13 12 12 12 12
24 24 24 23 23 22 22 22 22 22 22 22 22 21 21 21 21 20 20 19 19 19 19 18 18 17 17 16 15 14 14 14 15 14 14 13 13 12 13 13 12 12 12
25 24 25 25 24 24 23 23 23 22 22 22 22 21 22 21 21 21 21 20 20 20 20 19 18 18 18 16 16 15 15 15 15 14 14 13 13 13 13 13 13 12 12
27 26 25 25 25 24 24 23 24 24 23 23 23 22 21 21 21 21 21 20 20 20 20 19 18 18 17 16 16 16 16 15 15 15 14 14 14 13 13 13 13 13 12
25 25 25 25 25 24 24 24 24 23 23 23 23 22 22 22 21 22 21 21 21 21 20 19 19 18 18 17 16 16 17 17 16 16 16 15 15 14 14 14 14 13 13
24 24 24 24 24 23 23 23 22 23 23 22 22 22 22 22 23 22 21 20 20 20 19 19 19 19 18 18 18 18 18 17 17 17 17 17 16 16 16 15 14 14 14

GEFSMW_500_meanwind_270.txt.gz
Wind_Speed
16 15 15 15 14 13 12 12 12 11 11 10 10 10 11 12 13 14 14 14 13 13 12 13 13 13 13 13 13 13 14 15 16 17 17 17 18 19 20 20 21 20 20
16 16 16 15 14 14 13 13 12 11 11 12 11 10 11 12 13 14 15 14 13 13 14 14 14 14 13 13 14 15 15 15 16 17 18 18 18 19 20 21 22 21 21
17 16 15 14 14 14 13 13 13 13 13 13 12 12 12 13 15 15 15 14 14 14 14 14 15 15 15 14 15 16 16 16 16 17 17 17 18 19 19 21 22 22 22
16 15 14 13 13 13 13 13 13 13 14 14 13 13 13 14 15 15 15 14 14 14 15 14 15 15 15 15 16 17 17 18 18 18 18 18 18 18 18 19 20 22 22
15 15 15 14 14 13 13 13 13 12 13 13 13 13 14 15 15 15 14 15 14 15 14 15 15 15 16 16 17 18 18 19 19 19 18 18 18 17 17 18 19 20 20
16 16 15 15 14 14 13 12 13 13 13 12 12 13 14 15 15 15 15 15 15 15 15 15 15 16 16 17 17 18 18 19 19 18 18 17 17 17 18 18 18 19 19
18 17 17 16 15 15 13 13 13 12 13 13 13 14 14 15 15 15 15 15 15 15 16 16 16 16 17 17 18 18 18 18 18 18 18 18 18 18 19 18 19 19 20
18 18 18 17 16 15 14 13 14 14 14 13 13 13 14 14 14 15 15 15 15 15 15 16 16 17 17 17 18 18 18 18 18 19 19 19 19 19 19 19 19 20 20
18 19 19 18 17 15 15 15 15 14 15 14 13 13 14 15 15 15 15 15 15 15 15 16 16 17 18 18 18 18 19 19 19 19 19 19 19 20 20 20 21 21 21
19 19 19 18 18 17 16 16 16 15 15 15 15 14 14 15 15 15 15 16 15 15 15 16 16 17 18 19 19 19 19 19 19 18 18 18 19 20 20 21 21 22 23
20 19 19 19 18 17 16 16 16 16 16 15 15 15 14 15 15 15 16 16 15 15 15 16 17 18 19 20 20 19 18 18 18 18 18 18 18 19 19 20 21 21 22
21 20 19 19 19 19 18 17 17 17 17 16 16 15 15 16 16 16 16 16 16 16 16 17 18 19 19 20 19 18 18 18 17 18 18 18 18 18 19 20 21 21 21
21 20 19 19 20 20 18 18 18 18 18 18 17 17 17 17 17 17 17 17 17 17 18 18 19 18 19 19 19 18 18 17 17 17 18 18 19 19 20 20 21 21 21
20 21 21 21 21 20 19 19 19 19 19 19 19 18 18 18 18 18 18 18 17 18 19 19 19 19 19 19 19 19 19 18 18 18 18 18 18 18 19 19 19 19 19
21 21 21 22 21 21 21 20 21 20 20 20 20 19 19 19 19 19 19 19 19 19 19 19 19 20 19 19 19 19 19 18 17 17 17 18 17 17 18 18 18 19 18
21 21 22 22 22 21 21 21 21 21 20 20 20 20 21 21 21 21 21 20 19 19 20 20 20 20 20 19 19 20 19 18 17 17 17 17 16 17 18 18 18 18 17
23 21 21 21 22 22 21 20 21 21 20 20 21 21 21 21 21 20 20 20 20 20 20 20 20 20 20 20 20 19 18 18 18 18 18 16 16 16 17 18 18 17 17
22 22 21 21 22 22 22 21 21 22 21 21 21 21 21 21 21 21 21 21 21 21 21 21 21 20 20 20 20 19 18 18 18 18 18 17 17 17 18 18 18 17 17
21 21 21 21 21 22 23 23 23 22 22 21 21 21 21 21 21 22 22 22 22 22 22 21 21 20 20 20 20 19 19 19 19 18 18 18 17 17 18 18 18 18 18
22 21 20 20 21 22 23 23 23 23 23 23 22 21 22 22 22 22 23 23 23 22 22 22 21 21 20 20 19 19 19 19 19 18 18 18 18 17 17 18 18 17 18
22 22 21 21 22 22 22 23 24 24 23 23 22 22 22 22 22 22 23 23 22 22 22 23 22 21 20 19 19 20 20 19 18 18 18 18 18 18 18 17 17 17 18
23 23 23 22 22 23 24 24 24 24 24 23 23 22 21 21 22 22 22 22 22 22 22 21 21 20 20 20 19 19 19 18 18 18 18 18 19 19 18 17 17 17 17
23 23 23 24 24 23 24 25 25 24 23 24 23 23 22 22 22 21 22 22 22 21 21 21 21 20 20 19 19 19 19 19 19 18 18 18 18 18 18 17 17 17 17
25 25 24 24 24 23 24 25 25 24 24 24 23 22 22 22 22 22 22 22 22 22 21 21 21 20 20 20 20 19 19 20 19 19 19 20 19 19 19 18 18 18 18
25 24 24 24 23 23 23 22 22 22 22 23 22 22 22 22 23 23 23 22 22 23 22 21 20 21 21 21 21 20 21 21 21 20 19 19 19 20 19 19 19 18 18
24 23 23 23 23 23 24 23 22 22 22 22 21 21 22 23 23 24 24 23 23 23 23 23 22 22 22 21 21 21 20 20 20 20 20 20 20 20 19 19 20 20 19

GEFSMW_500_meanwind_276.txt.gz
Wind_Speed
18 18 17 17 17 17 17 17 17 16 15 15 14 13 13 13 13 14 14 13 13 13 13 13 13 13 13 13 14 14 14 13 14 14 15 16 16 17 18 18 18 18 19
18 18 18 17 16 17 18 18 18 17 16 16 15 15 15 15 15 14 14 14 14 14 14 14 14 14 14 14 14 14 14 15 15 15 15 15 16 16 17 18 19 19 19
19 19 18 18 17 16 17 17 18 16 16 16 16 16 16 16 15 15 14 15 15 15 15 15 15 16 16 15 16 16 15 16 16 16 16 15 16 16 16 17 18 19 20
19 18 18 18 18 16 16 16 15 15 14 15 17 17 17 16 16 15 16 16 16 16 16 16 16 17 17 17 17 17 16 16 16 17 17 17 16 17 16 16 17 18 19
20 19 19 18 18 17 16 15 14 14 14 15 16 17 17 17 17 17 17 17 17 17 18 18 17 17 18 17 17 17 17 16 16 16 16 17 17 17 17 17 17 17 18
20 20 20 19 19 18 16 15 14 14 14 15 16 17 16 17 18 17 17 17 18 18 19 18 18 19 19 19 18 17 17 17 17 16 17 17 18 18 18 18 18 18 19
20 20 19 20 19 18 18 16 16 16 15 15 16 17 17 17 17 17 18 17 18 18 18 18 18 19 19 20 19 18 18 18 17 17 17 17 18 19 19 19 19 20 20
19 19 19 19 19 18 18 17 17 17 16 16 16 16 17 17 17 17 17 17 17 17 17 17 17 18 19 18 19 19 18 18 18 18 18 18 18 18 18 19 19 20 20
18 18 19 19 19 19 19 18 18 18 18 17 16 15 16 17 17 16 16 16 16 16 16 16 16 16 17 16 16 17 18 18 18 18 18 18 19 19 19 19 19 20 20
19 20 20 20 20 20 20 20 19 19 18 17 17 17 16 16 17 16 16 16 16 16 15 15 16 15 16 16 17 17 18 19 19 19 19 19 19 20 20 19 20 20 22
20 19 19 20 21 21 21 20 20 20 19 18 18 17 18 17 18 17 17 17 16 16 15 16 16 17 18 18 18 18 18 19 20 20 20 20 20 20 20 20 20 21 21
19 19 19 20 20 21 20 20 20 20 20 19 19 19 19 19 18 18 18 17 16 15 16 16 17 17 18 18 19 18 18 19 20 20 20 20 20 20 20 20 20 21 21
19 19 19 19 20 20 20 20 20 21 20 20 20 20 20 20 20 19 18 17 17 17 17 17 17 17 18 18 18 19 19 19 19 19 20 20 20 20 20 20 20 20 21
19 19 20 20 20 21 20 20 21 21 21 21 21 21 21 20 20 19 19 18 18 18 18 18 18 18 18 19 20 20 20 19 19 19 19 19 19 20 20 20 20 20 21
20 21 21 21 21 22 22 22 21 21 21 21 21 21 21 21 20 20 20 19 20 20 19 19 19 19 20 20 20 20 20 19 19 19 19 19 19 20 20 21 21 21 21
21 21 22 22 22 22 22 22 21 21 21 21 21 21 21 21 21 21 20 20 21 21 21 20 21 21 21 21 21 20 19 19 19 19 20 20 21 21 21 21 21 21 21
22 22 23 22 22 22 22 23 22 22 22 21 21 22 22 22 22 21 21 21 22 22 21 22 22 22 22 22 21 20 19 19 19 20 21 21 22 22 22 21 21 21 21
22 22 22 22 22 22 22 22 22 22 22 22 23 23 23 23 23 22 22 22 22 22 22 22 23 23 23 22 22 21 21 21 21 21 21 21 21 21 21 20 20 20 20
22 22 22 22 22 22 22 22 23 22 22 22 22 23 23 23 22 22 22 22 22 22 22 22 22 22 22 22 22 22 22 22 21 21 21 22 21 21 21 21 21 21 22
21 22 22 23 22 21 22 22 23 23 23 23 23 23 23 22 23 23 22 22 22 22 22 22 22 22 22 21 21 21 21 21 21 21 22 21 21 20 21 22 22 22 22
22 21 22 21 21 21 22 22 23 23 23 23 23 23 23 23 23 23 22 22 23 23 23 23 23 22 21 21 21 21 21 21 21 22 21 21 21 21 22 22 23 23 23
22 21 21 21 21 21 22 23 22 22 22 22 22 23 23 24 24 23 23 24 23 24 24 24 23 22 22 22 22 22 22 22 21 21 22 22 22 22 22 22 23 23 23
22 22 22 22 21 21 22 22 22 22 22 22 23 24 25 25 24 24 24 24 24 24 24 24 23 24 24 23 23 22 22 22 22 22 22 22 23 23 23 23 24 25 24
22 22 22 22 21 21 22 22 22 22 22 23 23 23 23 24 24 24 24 24 23 23 22 22 23 24 24 24 24 24 23 23 23 23 23 23 23 24 24 24 24 23 22
23 23 22 22 22 22 22 22 21 21 22 22 22 22 22 22 22 22 23 23 24 24 23 23 24 25 25 24 24 24 24 23 23 24 24 24 24 24 24 23 22 22 21
23 23 23 22 22 22 22 22 22 22 22 21 21 22 22 23 23 24 24 24 24 23 24 24 24 24 24 24 24 24 24 24 24 24 25 24 24 24 22 21 21 21 21

GEFSMW_500_meanwind_282.txt.gz
Wind_Speed
20 20 19 18 18 17 18 17 17 17 17 16 16 16 16 16 16 16 16 16 15 15 15 15 15 14 14 14 15 15 14 14 14 14 15 15 15 16 15 16 16 15 15
20 20 20 18 18 18 18 18 17 17 17 17 17 17 17 17 17 16 16 16 17 16 16 16 15 15 15 15 16 16 16 16 15 15 15 16 16 16 16 17 15 14 15
20 20 20 19 18 17 18 17 17 17 17 17 18 18 18 18 17 17 17 17 18 17 17 17 17 17 17 17 17 17 16 16 16 16 17 17 17 17 17 16 15 15 14
20 20 20 19 19 18 18 18 17 17 17 17 17 17 18 18 18 18 18 19 19 18 18 18 18 18 18 17 17 17 17 17 17 17 18 17 17 17 16 15 15 15 16
21 20 20 19 19 19 19 19 18 17 17 18 17 17 17 18 18 19 19 19 20 19 18 18 18 18 18 18 18 17 17 17 17 17 17 18 17 17 17 16 16 15 15
21 20 20 19 19 19 19 19 19 19 19 19 18 18 18 19 19 20 20 20 20 20 19 19 19 19 19 19 19 19 18 18 18 17 18 18 17 17 18 18 18 17 17
22 20 20 20 19 18 19 19 20 20 20 20 19 19 19 19 20 20 19 20 20 20 20 19 19 19 20 20 19 19 19 19 19 19 19 18 18 19 19 19 18 18 17
21 20 20 19 19 19 19 20 20 20 20 20 20 20 19 19 19 19 20 19 18 18 18 19 19 19 19 20 19 19 19 19 19 18 19 19 20 20 19 19 19 19 18
19 19 19 19 19 19 20 20 21 21 20 20 20 21 20 20 20 20 20 20 19 18 19 20 20 19 19 18 18 18 19 19 18 19 19 20 20 20 20 20 20 20 20
19 19 19 19 20 20 20 20 21 21 21 21 21 20 20 20 21 21 20 20 19 19 19 19 19 19 19 18 18 19 18 18 18 19 20 20 20 21 21 21 21 21 21
19 18 19 19 20 21 21 21 22 21 21 21 20 21 21 21 21 21 20 20 19 19 19 19 19 20 19 18 19 19 18 19 19 19 19 19 20 20 20 21 22 22 22
19 18 20 20 20 22 21 21 21 21 21 21 21 22 22 22 22 21 21 21 20 18 19 19 18 18 17 17 17 18 18 19 20 20 20 20 20 20 21 21 21 22 22
19 19 20 21 21 22 22 22 21 21 21 22 22 22 22 22 22 22 20 20 20 20 20 20 19 19 18 18 18 18 19 19 20 20 20 20 21 20 20 20 21 22 23
20 21 22 22 22 23 23 22 22 22 22 22 22 22 23 22 22 22 21 20 20 20 21 20 20 20 20 20 20 20 20 20 21 20 20 21 20 21 21 21 21 21 22
22 23 23 22 22 22 22 22 22 22 23 22 23 23 23 22 22 21 21 21 20 21 21 21 21 21 21 21 21 21 21 21 21 21 21 21 21 21 21 21 22 22 22
22 23 23 22 22 23 23 22 22 23 23 23 23 23 23 22 22 21 21 21 21 22 22 22 22 22 22 23 23 23 22 22 22 22 22 22 22 22 23 23 23 23 23
21 22 23 23 23 23 23 23 23 23 23 23 23 23 22 22 22 21 21 21 22 23 23 23 23 23 23 23 23 23 23 23 23 22 23 23 23 23 24 24 24 24 24
22 22 22 22 22 23 24 23 23 22 22 22 22 22 22 22 22 21 21 22 22 23 24 24 24 24 23 23 23 23 23 23 22 22 23 23 23 24 24 24 24 25 25
22 22 22 22 23 24 24 23 22 23 23 23 22 22 22 21 21 22 22 22 23 24 24 25 25 24 24 23 23 23 23 24 23 23 23 23 24 24 24 24 25 26 26
22 22 22 23 23 24 24 22 22 22 23 22 22 22 21 20 21 22 22 23 24 24 25 25 26 25 25 24 25 24 24 24 24 24 24 24 24 25 25 25 25 26 26
22 22 22 22 22 23 23 23 22 22 22 21 21 21 22 22 22 22 22 23 23 24 24 25 25 25 25 25 25 26 25 24 24 25 25 25 25 25 25 26 26 26 26
23 23 22 22 22 23 24 23 22 21 21 21 21 21 22 23 23 22 22 22 23 23 24 24 24 25 25 26 26 26 25 25 25 25 25 26 25 25 25 25 25 25 25
24 23 23 23 22 22 22 22 22 22 21 21 21 21 21 22 22 22 22 23 23 24 24 24 24 25 25 25 26 26 25 25 25 26 25 25 26 26 26 25 25 25 25
23 23 23 22 22 23 22 21 21 22 21 21 22 22 22 22 23 23 24 24 24 24 24 24 24 24 25 25 25 25 25 26 26 27 27 26 26 26 27 27 26 26 26
22 22 23 23 23 23 22 21 21 21 20 21 21 22 22 22 22 23 23 23 24 24 24 23 23 24 24 24 24 24 24 25 25 26 27 27 27 26 26 26 26 27 26
22 22 22 23 23 23 22 22 22 22 22 22 22 22 22 22 22 23 23 23 22 22 23 23 24 23 23 24 23 24 24 25 25 26 26 26 26 26 26 26 26 26 25

GEFSMW_500_meanwind_288.txt.gz
Wind_Speed
18 17 16 15 16 15 14 13 14 14 13 13 13 14 14 14 14 13 13 13 13 13 14 14 13 13 13 12 12 12 12 12 11 11 11 12 12 13 13 13 14 14 13
17 16 16 16 16 16 15 14 14 15 14 14 14 14 15 15 15 14 14 14 14 14 15 15 15 14 14 14 13 13 13 13 13 13 13 13 13 14 13 12 13 13 14
17 17 18 18 17 17 16 15 15 15 15 14 14 14 15 15 15 15 15 15 15 15 15 15 15 15 14 14 14 14 14 14 14 14 14 14 14 15 15 14 14 14 14
18 18 18 19 19 18 17 16 15 15 15 15 15 15 15 15 15 15 15 15 15 15 16 17 16 16 16 15 15 15 15 15 15 15 15 15 15 16 16 16 16 15 15
18 18 19 19 19 19 18 17 16 16 16 16 16 16 15 15 16 16 16 16 16 16 17 17 18 18 17 17 17 17 17 16 16 16 16 16 16 17 18 17 17 16 15
18 18 19 19 19 18 17 17 17 17 17 16 16 16 16 16 17 17 18 17 16 17 17 18 18 19 18 18 18 18 18 18 18 17 17 17 16 16 17 18 18 17 17
18 18 19 19 18 18 18 18 18 17 17 17 17 17 18 18 18 19 19 18 17 17 17 17 17 18 18 18 19 19 19 19 19 18 18 17 17 17 17 17 17 17 17
18 17 18 18 18 18 18 18 18 18 17 18 19 19 20 20 20 20 19 18 18 18 17 18 18 18 19 19 20 20 20 20 20 19 19 18 18 18 18 17 17 17 17
17 17 17 17 17 17 17 17 18 18 18 19 19 20 20 20 20 20 19 19 19 19 19 19 20 20 19 20 21 21 20 20 20 20 20 20 20 20 19 18 17 17 17
17 16 17 17 17 17 17 17 18 18 18 19 19 19 19 20 20 19 19 18 18 19 20 20 20 20 20 20 20 19 19 20 19 20 21 21 20 19 18 18 18 18 18
19 18 18 17 19 18 18 18 18 18 18 19 19 19 19 19 19 19 19 19 20 20 20 20 20 20 20 20 19 19 19 19 20 20 20 20 19 19 19 19 18 18 18
19 19 20 20 20 19 19 18 18 18 18 19 19 19 18 18 19 19 19 19 20 20 20 20 20 20 20 20 19 19 19 18 18 18 19 18 18 18 18 18 18 17 17
19 20 20 20 20 19 19 19 18 19 19 19 19 19 19 19 19 19 19 19 20 21 21 20 20 20 20 20 20 19 19 18 18 18 19 18 18 18 19 19 18 18 18
19 19 21 20 20 21 19 18 18 19 19 20 20 20 20 20 20 20 20 20 21 21 21 21 20 20 20 20 20 19 19 19 20 20 20 20 20 19 20 20 20 19 19
20 20 19 19 19 18 18 18 19 19 20 20 20 20 20 20 20 21 21 21 21 21 21 21 21 21 21 20 20 20 20 20 20 21 21 22 22 21 21 21 21 21 20
20 19 19 20 19 19 20 20 20 20 20 20 20 20 20 20 20 20 20 20 20 20 21 21 21 21 22 22 21 21 21 21 20 21 22 23 24 23 23 22 22 22 22
20 20 19 19 19 20 21 22 21 20 20 21 21 21 20 20 20 19 19 18 18 19 20 20 21 21 22 22 22 22 22 22 22 22 22 23 23 24 24 24 24 24 23
21 20 19 18 19 20 21 22 22 22 21 21 21 21 21 21 21 20 19 18 18 18 19 20 21 21 21 22 22 22 23 23 23 23 23 24 24 24 25 25 25 24 24
20 20 20 20 20 20 20 21 21 22 22 22 21 21 21 20 20 20 19 19 19 19 20 20 20 20 21 21 22 22 23 23 24 24 25 24 24 25 26 25 25 25 25
22 21 20 20 20 19 20 20 20 20 21 22 21 21 20 20 20 20 20 20 20 20 20 20 20 21 21 21 21 22 22 23 23 24 24 24 25 25 25 26 26 26 26
21 21 21 21 20 20 20 20 20 20 20 21 21 21 20 21 21 21 20 20 21 21 20 20 20 21 21 21 21 22 22 23 23 24 25 26 26 26 27 27 27 27 27
21 21 22 22 21 20 20 20 20 20 20 19 20 21 21 20 20 21 20 20 21 21 20 20 20 21 21 21 22 22 23 23 23 24 24 25 26 28 29 29 28 29 29
21 21 21 22 21 20 21 20 20 20 20 19 19 20 20 20 20 20 20 20 20 20 21 21 21 21 22 22 22 23 22 23 23 24 24 24 24 26 27 28 28 29 29
21 21 21 21 21 20 20 21 20 20 19 19 19 19 19 19 19 19 19 19 20 20 21 21 21 22 22 23 24 24 23 23 23 23 23 23 23 24 24 25 26 27 28
21 21 20 20 21 20 20 21 21 20 19 18 18 19 19 19 18 18 18 19 20 20 21 22 22 23 23 23 23 23 22 21 21 21 21 22 23 23 23 24 25 25 26
21 21 21 21 20 21 21 20 21 20 19 19 19 19 19 19 19 19 20 20 21 21 21 21 22 22 22 22 22 21 21 21 21 21 22 22 23 23 24 24 25 26 26